Location: ????????
(55.8693°N, 37.7297°E)
Time: 08:11:11
(UTC+00:00)

Daily predictions for brighter satellites

Satellite Brightness Start Highest point End
(mag) Time Altitude Azimuth Time Altitude Azimuth Time Altitude Azimuth
Nadezhda 1 Rocket 4.4 16:47:53 10° SSE 16:53:51 44° E 16:59:48 10° NNE
Cosmos 1726 Rocket 4.2 16:50:31 10° SSE 16:54:34 36° E 16:58:40 10° NNE
Cosmos 1825 Rocket 3.6 16:52:06 10° NNW 16:56:32 88° W 17:00:55 10° S
STARLINK-1244 3.9 16:52:49 10° W 16:56:54 58° S 17:00:58 10° ESE
Cosmos 2322 Rocket 4.4 16:55:03 10° NW 16:58:48 17° N 17:02:32 10° NE
Cosmos 2315 Rocket 4.5 16:52:28 10° SSW 16:58:49 72° WNW 17:05:14 10° N
Resurs 01 Rocket 2.3 16:54:47 10° SE 16:58:53 39° ENE 17:03:00 10° N
ATLAS CENTAUR R/B 2.9 16:56:17 10° NW 16:59:49 26° NNE 17:03:09 10° ENE
FREGAT/IRIS 2.9 16:58:12 10° S 17:00:54 61° W 17:03:37 10° NNW
STARLINK-1138 3.9 16:57:47 10° W 17:01:52 57° S 17:05:56 10° ESE
Cosmos 1980 Rocket 3.9 16:58:34 10° NNW 17:02:53 22° NNE 17:07:11 10° ENE
ERBS 2.3 16:59:30 10° WNW 17:02:53 88° N 17:06:16 10° ESE
Cosmos 921 Rocket 3.1 16:58:59 10° NNW 17:03:09 57° ENE 17:07:17 10° SE
Aureole 3 4.5 16:59:28 10° SSW 17:04:40 83° WNW 17:11:19 10° NNE
Cosmos 407 Rocket 4.1 17:02:05 10° SSE 17:06:39 33° ESE 17:11:13 10° NE
STARLINK-1143 3.9 17:02:45 10° W 17:06:49 56° S 17:10:53 10° ESE
USA 186 2.5 17:05:39 10° S 17:08:53 55° W 17:11:58 10° NNW
Cosmos 1758 Rocket 4.2 17:05:59 10° NNW 17:10:16 58° W 17:14:30 10° S
SPOT 3 Rocket 3.6 17:06:14 10° SSE 17:11:27 80° ENE 17:16:41 10° NNW
ERS-1 Rocket 4.4 17:07:47 10° ESE 17:11:35 22° NE 17:15:23 10° N
STARLINK-1241 3.9 17:07:45 10° W 17:11:49 55° S 17:15:46 11° ESE
Cosmos 2074 Rocket 4.3 17:05:40 10° NNW 17:11:57 74° W 17:18:13 10° S
Cosmos 1603 3.7 17:06:22 10° SSW 17:11:59 78° ESE 17:17:37 10° NE
ADEOS Rocket 4.0 17:05:32 10° NNE 17:12:00 56° WNW 17:17:49 10° SW
Aureole 1 Rocket 4.3 17:06:00 10° S 17:12:44 44° ESE 17:18:03 10° NE
STARLINK-1233 3.9 17:09:56 10° W 17:12:51 35° SSW 17:15:38 11° SE
STARLINK-1234 4.1 17:10:14 10° W 17:12:59 30° SSW 17:15:43 10° SE
STARLINK-1212 3.9 17:10:24 10° W 17:13:18 34° SSW 17:16:04 11° SE
Cosmos 2237 Rocket 4.3 17:08:38 10° W 17:13:29 29° NNW 17:18:24 10° NNE
Cosmos 2228 3.1 17:09:15 10° S 17:13:30 60° E 17:17:48 10° NNE
STARLINK-1105 3.9 17:10:50 10° W 17:13:45 34° SSW 17:16:31 11° SE
Cosmos 1461 3.5 17:09:32 10° NW 17:13:58 62° SW 17:18:32 10° SSE
STARLINK-1209 4.2 17:11:27 10° W 17:14:10 29° SSW 17:16:51 10° SE
STARLINK-1206 3.9 17:11:19 10° W 17:14:12 34° SSW 17:16:55 11° SE
STARLINK-1247 3.9 17:11:46 10° W 17:14:39 34° SSW 17:17:21 11° SE
STARLINK-1227 4.0 17:12:11 10° W 17:15:05 34° SSW 17:17:48 11° SE
STARLINK-1218 4.0 17:12:41 10° W 17:15:33 34° SSW 17:18:13 11° SE
STARLINK-1226 4.0 17:13:07 10° W 17:16:00 34° SSW 17:18:40 11° SE
STARLINK-1254 4.0 17:13:33 10° W 17:16:26 34° SSW 17:19:06 11° SE
STARLINK-1239 3.9 17:12:41 10° W 17:16:45 54° S 17:20:30 12° ESE
STARLINK-1215 4.0 17:14:02 10° W 17:16:54 33° SSW 17:19:31 12° SE
STARLINK-1231 4.0 17:14:29 10° W 17:17:20 33° SSW 17:19:57 12° SE
Cosmos 1953 Rocket 3.8 17:13:42 10° NNW 17:18:12 80° W 17:22:41 10° S
STARLINK-1232 4.0 17:15:24 10° W 17:18:15 33° SSW 17:20:50 12° SE
STARLINK-1217 4.0 17:15:50 10° W 17:18:42 33° SSW 17:21:15 12° SE
SPOT 5 4.4 17:16:03 10° E 17:18:55 18° NE 17:21:47 10° N
STARLINK-1208 4.0 17:16:14 10° W 17:19:07 33° SSW 17:21:42 12° SE
Cosmos 1892 4.3 17:16:25 10° NNE 17:19:25 21° ENE 17:21:59 12° ESE
STARLINK-1229 4.0 17:16:44 10° W 17:19:35 33° SSW 17:22:07 12° SE
STARLINK-1271 4.0 17:17:10 10° W 17:20:02 33° SSW 17:22:33 12° SE
ATLAS 5 CENTAUR R/B 2.7 17:16:41 10° S 17:20:05 23° ESE 17:23:47 10° ENE
STARLINK-1270 4.0 17:17:38 10° W 17:20:30 32° SSW 17:22:59 12° SE
STARLINK-1154 4.0 17:18:05 10° W 17:20:56 32° SSW 17:23:25 12° SE
STARLINK-1240 4.0 17:17:40 10° W 17:21:44 53° S 17:25:18 13° ESE
STARLINK-1197 4.0 17:19:00 10° W 17:21:50 32° SSW 17:24:17 13° SE
STARLINK-1189 4.0 17:19:27 10° W 17:22:17 32° SSW 17:24:43 13° SE
STARLINK-1198 4.0 17:19:53 10° W 17:22:44 32° SSW 17:25:09 13° SE
SJ-6B 3.6 17:18:55 10° S 17:23:00 59° W 17:27:06 10° NNW
STARLINK-1188 4.1 17:20:21 10° W 17:23:11 32° SSW 17:25:35 13° SE
STARLINK-1235 4.3 17:21:00 10° W 17:23:47 29° SSW 17:26:14 12° SE
Meteor 1-16 Rocket 4.2 17:18:32 10° S 17:24:00 84° ESE 17:29:41 10° NNE
Cosmos 1606 Rocket 3.5 17:19:47 10° S 17:24:14 78° E 17:28:44 10° NNE
STARLINK-1187 4.2 17:21:25 10° W 17:24:15 30° SSW 17:26:41 13° SE
NOSS 3-4 (A) 4.4 17:17:48 10° NW 17:24:27 55° SW 17:31:47 10° SSE
NOSS 3-4 (C) 4.4 17:17:54 10° NW 17:24:34 56° SW 17:31:54 10° SSE
STARLINK-1199 4.1 17:22:16 10° W 17:25:08 31° SSW 17:27:30 13° SE
STARLINK-1191 4.1 17:22:44 10° W 17:25:35 31° SSW 17:27:57 13° SE
Cosmos 1818 3.6 17:20:34 10° SSW 17:25:55 60° SE 17:31:18 10° NE
STARLINK-1210 4.1 17:23:11 10° W 17:26:01 31° SSW 17:28:22 13° SE
STARLINK-1221 4.1 17:23:39 10° W 17:26:29 31° SSW 17:28:49 13° SE
STARLINK-1216 4.0 17:22:39 10° W 17:26:42 52° SSW 17:30:06 14° ESE
STARLINK-1219 4.1 17:24:05 10° W 17:26:55 31° SSW 17:29:14 13° SE
STARLINK-1222 4.1 17:24:33 10° W 17:27:23 31° SSW 17:29:40 14° SE
STARLINK-1211 4.1 17:25:00 10° W 17:27:50 31° SSW 17:30:06 14° SE
Terra 3.6 17:24:45 10° E 17:28:01 19° NE 17:31:16 10° N
STARLINK-1214 4.1 17:25:27 10° W 17:28:16 31° SSW 17:30:32 14° SE
STARLINK-1245 4.1 17:25:56 10° W 17:28:44 30° SSW 17:30:58 14° SE
STARLINK-1238 4.1 17:26:20 10° W 17:29:10 30° SSW 17:31:25 14° SE
Cosmos 1825 4.3 17:27:44 10° NNE 17:29:37 13° ENE 17:31:25 10° E
STARLINK-1205 4.1 17:27:17 10° W 17:30:06 30° SSW 17:32:16 14° SE
STARLINK-1204 4.1 17:27:44 10° W 17:30:32 30° SSW 17:32:41 14° SE
STARLINK-1237 4.0 17:27:37 10° W 17:31:39 51° SSW 17:34:52 15° ESE
SPOT 1/Viking Rocket 4.3 17:31:22 13° ESE 17:35:31 37° ENE 17:40:19 10° N
Cosmos 2058 3.7 17:31:46 10° N 17:35:33 34° ENE 17:38:21 16° SE
STARLINK-1202 4.0 17:32:36 10° W 17:36:37 50° SSW 17:39:39 16° ESE
NOSS 3-3 (A) 4.1 17:31:24 10° SW 17:37:30 87° SE 17:44:31 10° NE
NOSS 3-3 (C) 4.1 17:31:30 10° SW 17:37:36 86° SE 17:44:37 10° NE
RESURS DK-1 3.5 17:34:43 10° NNW 17:38:31 33° NE 17:41:30 15° E
Abrixas rocket 4.0 17:36:37 10° SW 17:38:36 16° SSW 17:39:55 13° SSE
MOS 1 Rocket 3.7 17:35:45 10° NNE 17:41:02 56° E 17:46:23 10° S
Cosmos 1076 Rocket 4.1 17:38:24 10° N 17:42:29 41° ENE 17:45:26 17° SE
CZ-2C R/B 3.7 17:39:49 10° NNE 17:44:36 76° ESE 17:49:15 10° SSW
SL-4 R/B 2.6 17:42:42 10° SW 17:45:38 27° SSE 17:47:03 20° ESE
Cosmos 1300 3.2 17:42:33 10° SSE 17:46:07 39° E 17:49:43 10° NNE
STARLINK-1246 4.1 17:42:33 10° W 17:46:33 47° SSW 17:49:14 19° SE
Cosmos 1763 Rocket 3.9 17:41:37 10° NNW 17:46:43 50° NE 17:50:25 18° ESE
STARLINK-1203 4.2 17:42:57 10° W 17:47:00 46° SSW 17:49:43 19° SE
H-2A R/B 3.7 17:43:04 10° SSW 17:47:43 34° W 17:52:19 10° NNW
Cosmos 1340 Rocket 2.7 17:46:04 10° S 17:50:07 73° ESE 17:54:09 10° NNE
STARLINK-1201 4.4 17:48:27 10° W 17:51:16 27° SSW 17:52:54 18° SSE
STARLINK-1224 4.1 17:47:31 10° W 17:51:30 46° SSW 17:54:00 20° SE
USA 234 4.1 17:47:28 10° ENE 17:52:39 24° SE 17:57:48 10° S
ATLAS 2AS CENTAUR R/B 4.0 17:49:26 10° NW 17:56:23 39° WSW 18:02:49 10° S
Cosmos 540 Rocket 4.4 17:51:36 10° NNW 17:56:23 36° NE 17:59:40 18° ESE
STARLINK-1225 4.2 17:52:31 10° W 17:56:29 44° SSW 17:58:48 22° SE
MetOp-B 4.1 17:51:39 13° SSE 17:56:32 77° ENE 18:01:55 10° NNW
Cosmos 1174 3.9 17:53:08 10° NW 17:56:58 89° NE 18:00:05 21° SE
SAR-Lupe-2 4.0 17:57:04 10° NNE 18:00:28 39° E 18:02:26 21° SSE
STARLINK-1230 4.2 17:57:29 10° W 18:01:26 43° SSW 18:03:35 23° SE
SeaSat 1 3.7 17:56:56 10° NNE 18:01:40 46° NW 18:06:21 10° WSW
Iridium 4 Rocket 3.3 17:58:44 10° N 18:02:51 46° E 18:05:09 23° SE
Cosmos 1908 4.1 18:00:31 10° SSW 18:04:18 53° WNW 18:08:09 10° N
CZ-4C R/B 3.1 17:58:54 10° NW 18:05:19 59° NNE 18:11:38 15° E
STARLINK-1243 4.3 18:02:27 10° W 18:06:23 42° SSW 18:08:22 24° SE
Cosmos 2341 Rocket 4.2 18:01:27 10° NNW 18:07:50 77° W 18:14:13 10° S
Cosmos 1943 3.8 18:02:29 10° SW 18:08:07 62° NW 18:13:48 10° NNE
Cosmos-2242 4.4 18:07:44 20° E 18:08:21 20° E 18:11:34 10° NE
STARLINK-1236 4.3 18:07:26 10° W 18:11:20 40° SSW 18:13:08 26° SSE
Cosmos 2369 4.2 18:07:14 10° NNW 18:12:45 50° NE 18:16:13 22° ESE
Cosmos 1140 Rocket 3.4 18:09:16 10° SSW 18:14:27 77° ESE 18:19:38 10° NNE
COSMOS 2455 3.7 18:11:21 10° NW 18:17:03 44° WSW 18:22:02 13° S
DMSP B5D2-2 4.2 18:11:59 10° NNE 18:17:14 81° WNW 18:22:29 10° SSW
CZ-2C R/B 2.5 18:12:05 10° NNE 18:17:18 89° ESE 18:22:31 10° SSW
Cosmos 1697 Rocket 3.1 18:13:24 10° NNW 18:18:59 54° NE 18:22:18 24° ESE
Cosmos 1190 Rocket 4.0 18:15:19 10° SSW 18:20:39 88° WNW 18:25:59 10° NNE
Spot 2 Rocket 3.5 18:16:42 17° SSE 18:20:41 83° WSW 18:25:50 10° NNW
STARLINK-1269 4.4 18:17:23 10° W 18:21:14 37° SSW 18:22:42 28° SSE
Cosmos 2218 Rocket 4.0 18:16:06 10° NNW 18:22:21 90° SSW 18:27:29 16° S
Landsat 7 3.8 18:20:05 23° SSE 18:23:07 82° ENE 18:27:54 10° NNW
Cosmos 841 Rocket 3.8 18:18:44 10° NNW 18:23:58 56° NE 18:26:41 27° ESE
Cosmos 2058 Rocket 3.8 18:19:40 10° SSW 18:24:07 57° WNW 18:28:35 10° N
STARLINK-1200 4.5 18:22:22 10° W 18:26:11 36° SSW 18:27:29 28° SSE
Cosmos 1408 2.9 18:23:27 10° N 18:27:00 48° ENE 18:27:58 37° ESE
Cosmos 614 Rocket 4.5 18:21:55 10° SW 18:27:07 63° WNW 18:32:18 10° NNE
Cosmos 2344 4.3 18:20:49 10° WNW 18:29:20 70° NNE 18:38:33 17° ESE
CARTOSAT-1 3.7 18:29:09 32° SE 18:30:57 59° ENE 18:35:14 10° N
IGS 5A 3.4 18:30:26 28° SSE 18:32:35 86° WSW 18:36:46 10° NNW
Okean 3 Rocket 3.9 18:29:25 10° N 18:33:44 51° ENE 18:35:16 34° SE
Cosmos 468 Rocket 4.1 18:29:45 10° NNW 18:34:57 73° WSW 18:37:52 26° SSE
Cosmos 1356 Rocket 4.2 18:34:29 32° ESE 18:34:58 34° E 18:38:49 10° NNE
Iridium 2 3.6 18:32:58 22° S 18:35:20 86° W 18:39:12 10° N
Mayak 0.8 18:33:00 10° NE 18:34:38 14° ENE 18:34:38 14° ENE
Meteor 2-12 Rocket 4.4 18:29:15 10° NNW 18:35:25 87° E 18:39:28 22° SSE
Resurs 01 Rocket 3.1 18:31:24 10° SSW 18:35:27 35° W 18:39:31 10° NNW
SL-16 R/B 3.8 18:31:34 10° NNW 18:36:20 26° NNE 18:40:31 12° E
SL-8 Rocket 4.4 18:32:35 10° NNW 18:38:50 64° W 18:44:32 13° S
Cosmos 1570 Rocket 4.0 18:33:30 10° NNW 18:38:55 79° ENE 18:41:29 32° SE
ERBS 3.3 18:35:56 10° W 18:39:00 32° SW 18:39:24 31° SSW
Cosmos 1766 Rocket 4.0 18:34:53 10° N 18:39:16 49° ENE 18:40:38 36° ESE
ATLAS CENTAUR R/B 1.4 18:35:24 10° NW 18:39:23 63° NE 18:40:35 40° E
Cosmos 2360 Rocket 4.2 18:35:21 10° NNW 18:39:30 21° NNE 18:43:40 10° ENE
Cosmos 2181 Rocket 4.0 18:36:54 10° S 18:43:10 88° WNW 18:49:23 10° NNE
Meteor 2-3 Rocket 4.4 18:38:38 10° N 18:44:07 42° ENE 18:46:25 29° ESE
Cosmos 2322 Rocket 3.8 18:40:08 10° NNW 18:44:51 26° NNE 18:48:58 12° E
Cosmos 1656 3.8 18:40:57 10° NW 18:46:41 76° WSW 18:49:30 31° SSE
Cosmos 1980 Rocket 2.6 18:42:40 10° NNW 18:48:10 52° NE 18:50:48 29° ESE
Cosmos 407 Rocket 4.3 18:43:28 10° SW 18:48:29 52° NW 18:53:31 10° NNE
SL-24 R/B - RUBIN 2 4.4 18:42:55 10° SW 18:48:49 89° NW 18:55:25 10° NE
Cosmos 676 Rocket 4.0 18:44:06 10° SSW 18:49:24 84° WNW 18:54:41 10° NNE
ERS-1 Rocket 2.9 18:47:21 31° SSE 18:49:50 87° WSW 18:54:54 10° NNW
Cosmos 2366 rocket 4.3 18:45:37 10° NNW 18:51:41 64° W 18:56:23 18° S
Cosmos 1812 Rocket 3.5 18:52:40 24° SSW 18:55:16 82° WNW 18:59:39 10° N
Cosmos 1455 2.4 18:55:19 49° E 18:55:23 49° E 18:59:07 10° NNE
Cosmos 1892 3.3 18:51:37 10° NNW 18:55:26 54° W 18:57:00 31° SSW
SPOT 5 2.5 18:55:00 42° SSE 18:56:28 89° WSW 19:00:50 10° NNW
ATLAS 5 CENTAUR R/B 1.7 18:59:42 10° SW 19:04:05 83° NW 19:09:10 10° NE
Terra 1.7 19:03:34 43° SSE 19:05:07 83° ENE 19:09:56 10° NNW
Cosmos 1825 2.0 19:01:57 10° NNW 19:05:47 87° E 19:06:15 67° SSE
Nadezhda 3 Rocket 4.1 19:05:40 35° SSE 19:08:12 57° E 19:14:20 10° NNE
Cosmos 2360 4.2 19:02:59 10° NW 19:08:44 79° NE 19:10:50 41° SE
Cosmos 2151 3.1 19:08:00 10° NNW 19:12:13 70° W 19:13:16 47° SSW
Cosmos 2058 4.4 19:08:45 10° NNW 19:12:26 33° W 19:14:35 20° SW
Cosmos 1954 Rocket 4.4 19:07:23 10° SW 19:12:35 62° WNW 19:17:46 10° NNE
SPOT 1/Viking Rocket 4.3 19:12:00 24° SSW 19:14:51 48° W 19:19:57 10° NNW
Cosmos 2278 3.6 19:09:27 10° NNW 19:15:09 82° NE 19:17:04 44° SE
RESURS DK-1 2.8 19:12:42 10° NW 19:16:46 51° WSW 19:17:24 46° SSW
Cosmos 1741 Rocket 3.9 19:14:44 32° S 19:17:13 72° ESE 19:22:33 10° NNE
Cosmos 2208 Rocket 4.1 19:13:25 10° NNW 19:18:36 67° WSW 19:20:16 42° S
Thor Agena Rocket 4.5 19:14:10 10° NNE 19:18:27 30° E 19:18:27 30° E
Cosmos 1408 Rocket 3.5 19:16:11 10° N 19:20:41 72° ENE 19:21:18 61° SE
Cosmos 2082 Rocket 3.3 19:22:11 26° E 19:22:11 26° E 19:25:59 10° NE
Cosmos 1743 Rocket 4.1 19:17:18 10° N 19:21:38 44° ENE 19:22:03 43° E
SL-4 R/B 3.6 19:21:28 10° WSW 19:22:39 19° WSW 19:22:39 19° WSW
Cosmos 2239 Rocket 4.5 19:22:47 10° NNW 19:29:04 84° W 19:31:34 39° S
Cosmos 1833 Rocket 3.0 19:32:05 45° ESE 19:32:12 45° ESE 19:37:33 10° NE
Cosmos 1821 Rocket 4.1 19:26:45 10° NNW 19:33:06 73° W 19:35:55 36° S
USA 234 3.2 19:30:10 10° ENE 19:36:38 59° SSE 19:43:05 10° SW
Cosmos 1814 Rocket 4.4 19:32:32 10° NNW 19:37:48 57° WSW 19:39:13 43° SSW
Cosmos 2219 Rocket 4.4 19:33:56 10° NNW 19:38:07 21° NNE 19:42:17 10° ENE
Cosmos 1934 Rocket 3.9 19:31:46 10° N 19:38:07 84° E 19:40:06 46° SSE
Cosmos 540 Rocket 3.9 19:33:12 10° NW 19:38:15 54° WSW 19:39:30 43° SSW
COSMOS 2406 3.1 19:39:02 40° SSW 19:41:09 75° ESE 19:46:53 10° NE
Spot 4 4.0 19:41:15 52° E 19:41:52 56° ENE 19:46:36 10° N
Meteor 2-10 Rocket 3.6 19:42:14 39° SSW 19:44:16 77° WNW 19:49:47 10° NNE
Cosmos 2221 3.5 19:45:02 35° ENE 19:45:02 35° ENE 19:48:21 10° NNE
Cosmos 1633 3.7 19:42:00 10° N 19:44:38 36° NE 19:44:38 36° NE
Cosmos-2242 3.4 19:44:32 48° SW 19:45:30 62° WNW 19:49:52 10° N
Cosmos 1346 Rocket 4.4 19:43:18 10° N 19:46:34 25° ENE 19:46:34 25° ENE
Cosmos 1605 Rocket 3.9 19:46:12 10° N 19:52:23 74° ENE 19:53:56 52° SE
CZ-4C R/B 2.9 19:47:25 10° NW 19:54:15 69° SW 19:56:49 44° SSE
Cosmos 2369 4.3 19:51:35 10° NW 19:56:56 44° WSW 19:58:09 39° SW
Cosmos 1842 Rocket 3.9 19:58:10 54° ENE 19:58:10 54° ENE 20:01:53 10° NNE
Cosmos 1850 Rocket 4.5 19:59:22 22° SW 20:02:39 58° NW 20:07:48 10° NNE
Cosmos 1697 Rocket 3.5 19:57:36 10° NW 20:02:52 40° WSW 20:04:03 36° SW
Cosmos 2084 3.5 20:00:28 10° NW 20:04:43 80° WNW 20:04:43 80° WNW
ASTEX 1 3.6 20:05:06 53° SW 20:05:56 62° W 20:10:53 10° N
Sich 1 3.7 20:05:07 10° N 20:09:14 45° ENE 20:09:14 45° ENE
Mayak -1.1 20:07:24 10° NNE 20:11:12 73° N 20:11:12 73° N
Cosmos 1340 3.7 20:07:54 10° N 20:10:49 41° NNE 20:10:49 41° NNE
Cosmos 1400 Rocket 4.3 20:13:05 28° NE 20:13:05 28° NE 20:15:23 10° NNE
ALOS 2 2.9 20:17:54 57° NE 20:17:54 57° NE 20:22:02 10° N
ATLAS CENTAUR R/B 3.1 20:14:45 10° WNW 20:16:45 21° W 20:16:45 21° W
SL-16 R/B 2.2 20:15:42 10° NNW 20:21:24 73° NE 20:22:22 60° ESE
Cosmos 2360 Rocket 3.0 20:19:32 10° NNW 20:24:57 45° NE 20:26:45 34° E
Cosmos 968 Rocket 4.3 20:26:29 39° E 20:26:29 39° E 20:30:36 10° NE
Meteor 2-3 Rocket 4.5 20:21:58 10° NNW 20:27:24 44° W 20:28:43 38° SW
Cosmos 1500 Rocket 4.0 20:24:14 10° NNW 20:28:12 53° W 20:28:12 53° W
Cosmos 1805 Rocket 3.7 20:25:17 10° NNW 20:29:23 73° N 20:29:23 73° N
Cosmos 2322 Rocket 2.2 20:24:12 10° NNW 20:29:53 71° NE 20:30:46 60° ESE
NOSS 2-1 (C) 4.0 20:26:29 10° NW 20:31:07 82° NE 20:31:53 67° ESE
Cosmos 1455 4.3 20:30:11 19° W 20:31:17 22° WNW 20:34:19 10° NNW
Cosmos 1980 Rocket 2.8 20:26:53 10° NW 20:32:09 42° WSW 20:32:34 41° WSW
NOSS 2-1 (D) 4.0 20:30:43 10° NW 20:35:22 86° NE 20:36:00 71° ESE
Cosmos 2333 Rocket 3.7 20:34:38 10° NNW 20:39:42 32° NE 20:43:07 18° E
Meteor 2-2 Rocket 4.1 20:42:25 74° SSE 20:42:53 82° ESE 20:48:34 10° NNE
Terra 3.8 20:42:27 17° WSW 20:43:30 18° W 20:46:49 10° NW
Cosmos 2344 4.5 20:35:09 10° NW 20:44:10 59° SW 20:48:33 40° S
Cosmos 2237 Rocket 4.4 20:41:15 10° NNW 20:45:40 22° NNE 20:50:04 10° ENE
Cosmos 2061 Rocket 4.3 20:39:40 10° N 20:45:49 56° ENE 20:47:02 48° ESE
Cosmos 1633 Rocket 3.6 20:42:51 10° N 20:46:44 55° NE 20:46:44 55° NE
ATLAS 5 CENTAUR R/B 3.2 20:44:56 10° W 20:49:19 39° NNW 20:54:24 10° ENE
Cosmos 1607 3.9 20:54:18 60° ESE 20:54:18 60° ESE 21:00:17 10° NE
Thor Agena Rocket 3.9 20:53:17 10° N 20:58:15 56° WNW 20:59:02 50° W
Cosmos 1869 4.2 21:00:13 47° NNW 21:00:13 47° NNW 21:03:19 10° N
Helios 1A 3.6 21:04:12 55° NW 21:04:12 55° NW 21:07:34 10° NNW
Cosmos 1459 Rocket 3.9 20:57:49 10° NNW 21:04:15 89° WSW 21:05:11 67° S
Cosmos 1315 Rocket 4.1 21:05:39 37° NE 21:05:39 37° NE 21:08:24 10° NNE
Cosmos 2082 Rocket 2.2 21:03:59 61° WSW 21:04:56 75° NW 21:10:39 10° NNE
SL-16 R/B 4.2 21:01:23 13° E 21:05:35 26° NE 21:10:34 10° N
Cosmos 1354 Rocket 4.3 21:06:59 56° E 21:06:59 56° E 21:11:38 10° NNE
Cosmos 1727 Rocket 4.0 21:13:56 61° SW 21:15:02 77° WNW 21:21:26 10° N
Cosmos 1833 Rocket 3.4 21:13:44 30° WSW 21:16:09 49° NW 21:21:40 10° NNE
USA 234 3.2 21:13:22 10° ENE 21:19:57 87° N 21:26:32 10° W
Cosmos 1725 Rocket 4.0 21:14:32 10° N 21:20:54 75° ENE 21:21:53 62° SE
Cosmos 2016 Rocket 3.9 21:14:51 10° NNW 21:21:16 87° E 21:22:10 68° SSE
Cosmos 2221 3.8 21:21:51 33° WNW 21:21:56 33° WNW 21:25:56 10° N
Cosmos 1503 Rocket 3.9 21:22:24 79° ENE 21:22:24 79° ENE 21:27:23 10° NNE
Cosmos 1802 Rocket 3.8 21:16:11 10° NNW 21:22:26 81° W 21:23:09 70° SSW
Cosmos 1346 Rocket 4.2 21:19:25 10° NNW 21:22:04 34° NW 21:22:04 34° NW
Cosmos 2219 Rocket 3.0 21:18:04 10° NNW 21:23:29 46° NE 21:25:38 32° E
NOSS 2-1 (E) 4.3 21:19:00 10° NW 21:23:21 60° WSW 21:23:21 60° WSW
Cosmos 2100 Rocket 4.1 21:21:22 10° NNW 21:27:28 62° W 21:28:13 57° SW
Cosmos 1241 Rocket 4.4 21:22:09 10° NW 21:28:19 62° SW 21:28:24 62° SW
Cosmos 2237 4.1 21:27:55 10° NW 21:33:40 79° WSW 21:33:47 79° SW
Cosmos 1933 Rocket 4.0 21:30:47 10° N 21:34:35 60° NNE 21:34:35 60° NNE
Cosmos 44 3.7 21:36:36 49° NE 21:36:36 49° NE 21:39:50 10° NE
SL-08 R/B 4.3 21:29:21 10° NNW 21:35:37 88° W 21:36:26 70° S
Cosmos 2123 Rocket 4.0 21:35:00 58° SE 21:35:42 63° E 21:41:49 10° NNE
Cosmos 2173 Rocket 4.1 21:30:39 10° NNW 21:36:37 57° W 21:37:13 54° WSW
Helios 1B rocket 3.6 21:33:09 10° NNE 21:36:02 37° NE 21:36:02 37° NE
Cosmos 1680 Rocket 4.1 21:34:06 10° NNW 21:39:15 53° NE 21:40:12 46° E
CZ-4C R/B 4.2 21:36:35 10° WNW 21:41:59 24° WSW 21:41:59 24° WSW
Cosmos 2322 3.7 21:37:08 10° NNW 21:42:53 77° NE 21:43:41 65° ESE
Cosmos 1538 Rocket 4.1 21:37:46 10° NNW 21:42:42 67° W 21:42:42 67° W
COSMOS 2428 3.2 21:38:34 10° NNW 21:44:14 56° NE 21:46:06 39° ESE
Mayak 1.2 21:44:04 10° NNW 21:46:34 16° NW 21:47:46 14° WNW
Cosmos 2333 4.2 21:41:47 10° NNW 21:47:26 78° NE 21:48:07 67° ESE
Cosmos 1400 Rocket 4.4 21:48:41 28° NW 21:48:41 28° NW 21:51:45 10° N
Cosmos 1328 Rocket 4.0 21:53:27 59° N 21:53:27 59° N 21:56:59 10° NNE
ALOS 2 4.4 21:55:17 22° WNW 21:55:17 22° WNW 21:57:55 10° NW
MOS 1-B Rocket 4.1 21:48:33 10° NNE 21:54:37 83° WNW 21:55:58 60° SSW
Meteor 1-20 Rocket 4.1 21:49:32 10° NNW 21:55:22 78° WSW 21:55:41 75° SW
Resurs 1-4 Rocket 4.0 21:52:01 10° NE 21:55:38 18° E 21:56:48 17° ESE
Cosmos 1441 Rocket 4.4 21:55:16 10° N 21:57:53 40° N 21:57:53 40° N
SJ 16-02 3.5 22:01:00 17° E 22:01:00 17° E 22:03:23 10° NE
SL-16 R/B 3.5 22:00:19 10° NW 22:04:14 27° W 22:04:14 27° W
SL-16 R/B 4.2 22:01:58 10° NNW 22:06:44 27° NNE 22:11:29 10° E
Cosmos 968 Rocket 4.3 22:06:28 40° W 22:07:29 45° NW 22:12:33 10° NNE
Cosmos 2360 Rocket 2.6 22:03:39 10° NW 22:08:30 48° W 22:08:30 48° W
Cosmos 2228 Rocket 3.5 22:12:32 57° ENE 22:12:32 57° ENE 22:16:40 10° NNE
SL-19 R/B 4.5 22:11:08 49° SE 22:12:36 67° ENE 22:18:09 10° NNW
Cosmos 2322 Rocket 3.5 22:08:46 10° NW 22:12:34 27° W 22:12:34 27° W
SL-27 R/B 4.4 22:16:47 26° NNW 22:16:47 26° NNW 22:18:43 10° NNE
Cosmos 158 Rocket 4.0 22:13:17 10° NNW 22:18:37 76° ENE 22:19:08 68° ESE
CZ-2D R/B 3.6 22:17:02 10° NNE 22:21:45 28° E 22:23:07 25° ESE
Cosmos 1733 Rocket 4.3 22:19:01 10° N 22:23:05 35° ENE 22:23:55 32° E
Cosmos 2112 Rocket 3.8 22:18:23 10° NNW 22:23:38 88° ENE 22:23:56 80° SE
Cosmos 2333 Rocket 2.0 22:18:54 10° NW 22:24:36 82° WSW 22:25:05 74° S
Cosmos 1833 4.4 22:24:56 56° SE 22:25:20 57° ESE 22:30:58 10° NE
Cosmos 405 Rocket 4.3 22:22:06 10° N 22:25:23 28° ENE 22:25:34 28° ENE
Cosmos 1777 Rocket 3.8 22:25:47 83° SSW 22:26:00 89° ESE 22:31:18 10° NNE
Cosmos 1536 4.4 22:22:39 10° N 22:26:12 29° ENE 22:26:44 28° E
Cosmos 1933 4.2 22:27:36 44° NNW 22:27:36 44° NNW 22:30:46 10° N
Genesis I 4.5 22:28:38 36° ENE 22:28:38 36° ENE 22:31:07 10° NE
Lacrosse 5 rocket 3.6 22:30:09 15° E 22:30:09 15° E 22:31:03 10° E
Cosmos 1606 3.9 22:29:49 38° NNW 22:29:49 38° NNW 22:32:43 10° N
SME Rocket 3.9 22:25:09 10° N 22:29:25 41° NW 22:29:25 41° NW
MOZ.5/SAFIR/RUBIN 5/SL-8 3.9 22:29:09 64° ESE 22:29:33 68° ENE 22:34:19 10° NNW
Cosmos 1151 Rocket 3.9 22:30:34 41° NW 22:30:34 41° NW 22:34:18 10° N
Cosmos 2237 Rocket 2.8 22:25:25 10° NNW 22:31:00 54° NE 22:35:21 17° ESE
Cosmos 44 Rocket 3.4 22:33:25 62° E 22:33:25 62° E 22:37:36 10° NE
Cosmos 1500 4.1 22:29:13 10° N 22:32:11 46° NNE 22:32:11 46° NNE
ATLAS 5 CENTAUR R/B 3.3 22:30:15 10° WNW 22:35:00 41° NNE 22:40:30 10° E
CZ-4C R/B 4.3 22:39:28 37° NNW 22:39:28 37° NNW 22:41:42 10° NNW
Cosmos 839 Rocket 4.0 22:40:36 55° SW 22:42:10 87° SE 22:49:28 10° NE
Meteor 1-29 4.4 22:41:32 10° N 22:43:46 34° NNW 22:43:46 34° NNW
ERS-2 4.0 22:44:08 23° E 22:45:09 26° ENE 22:48:14 10° N
CZ-4 R/B 4.3 22:41:02 10° N 22:45:49 52° WNW 22:46:14 51° W
Meteor 2-20 4.5 22:45:16 55° SW 22:46:29 68° WNW 22:52:41 10° N
SL-16 R/B 2.5 22:46:28 46° SSE 22:48:31 87° ENE 22:54:48 10° NNW
Cosmos 2082 Rocket 3.9 22:45:47 13° W 22:49:56 27° NNW 22:54:45 10° NNE
Cosmos 1891 Rocket 4.4 22:44:30 10° NNW 22:50:48 88° ENE 22:52:31 51° SSE
Cosmos 1898 Rocket 4.3 22:51:14 37° SE 22:52:00 39° ESE 22:56:49 10° NE
Meteor 1-5 Rocket 4.1 22:46:31 10° NNW 22:52:17 86° WSW 22:53:20 61° S
UNK 3.6 22:55:57 79° SSE 22:56:15 88° ENE 23:00:58 10° NNW
Cosmos 1869 Rocket 4.2 22:52:22 10° NNW 22:56:02 46° WNW 22:56:02 46° WNW
Cosmos 2297 Rocket 4.3 22:54:49 13° SE 22:57:18 17° E 23:00:47 10° ENE
Meteor 1-11 Rocket 3.8 22:51:59 10° NNW 22:57:57 83° ENE 22:59:54 46° SSE
PSLV R/B 4.2 22:54:44 10° N 22:59:00 46° WNW 22:59:07 46° WNW
Cosmos 1072 Rocket 4.4 22:53:23 10° NNW 22:59:36 79° W 23:01:14 52° S
Cosmos 1666 3.3 22:58:00 10° N 23:01:35 52° ENE 23:01:35 52° ENE
Cosmos 1782 3.4 23:02:23 49° NW 23:02:23 49° NW 23:05:44 10° N
USA 234 3.2 22:56:26 10° E 23:03:00 85° N 23:09:35 10° WNW
COSMOS 2487 3.6 23:04:48 39° NNW 23:04:48 39° NNW 23:07:22 10° NNE
Meteor 2-11 Rocket 4.4 22:58:12 10° NNW 23:04:18 68° W 23:05:38 53° SSW
Cosmos 724 4.5 23:04:09 42° W 23:06:03 65° NW 23:11:50 10° NE
Cosmos 2219 Rocket 2.4 23:02:09 10° NW 23:07:20 48° WSW 23:07:20 48° WSW
Meteor 2-6 Rocket 4.0 23:07:21 59° S 23:08:25 82° ESE 23:13:51 10° NNE
Helios 1B rocket 3.9 23:08:47 10° N 23:12:15 27° WNW 23:12:22 27° WNW
NOSS 3-3 (A) 4.4 23:05:48 10° NW 23:12:58 86° NE 23:21:06 10° SE
NOSS 3-3 (C) 4.4 23:05:54 10° NW 23:13:04 85° NE 23:21:11 10° SE
Cosmos 1707 Rocket 3.4 23:17:42 76° S 23:18:03 87° E 23:22:33 10° NNE
BREEZE-M DEB (TANK) 4.2 23:21:01 34° SE 23:21:01 34° SE 23:23:13 10° ESE
IRS-1D 4.5 23:15:33 10° NNE 23:20:17 40° E 23:22:19 28° SE
Cosmos 1184 Rocket 3.7 23:17:46 10° NNW 23:20:14 46° N 23:20:14 46° N
Cosmos 1680 Rocket 4.4 23:16:31 10° NW 23:20:30 33° W 23:20:30 33° W
Cosmos 405 4.5 23:21:16 29° ESE 23:21:36 29° E 23:24:43 10° NNE
Cosmos 1862 Rocket 4.1 23:22:14 43° SE 23:23:10 51° E 23:27:31 10° NNE
Cosmos 2227 Rocket 4.0 23:20:42 15° SE 23:23:36 23° ESE 23:27:53 10° NE
ADEOS II 3.4 23:19:39 10° NNE 23:24:27 34° E 23:27:15 21° SE
Cosmos 1464 Rocket 4.0 23:20:53 10° NNW 23:26:54 58° W 23:28:26 45° SW
STARLINK-48 4.4 23:28:32 37° ESE 23:28:32 37° ESE 23:31:10 10° E
COSMOS 2428 3.3 23:23:07 10° NW 23:28:05 38° WSW 23:28:05 38° WSW
Cosmos 1980 3.6 23:28:15 10° NW 23:33:55 69° WSW 23:36:18 35° S
Resurs 1-4 Rocket 2.0 23:30:55 10° NNE 23:36:15 87° ESE 23:37:53 46° SSW
SJ 16-02 1.2 23:37:59 65° SW 23:38:35 82° WNW 23:43:01 10° NNE
NOSS 0 Rocket 4.0 23:33:23 10° NW 23:39:20 51° WSW 23:40:58 41° SSW
Cosmos 1812 2.7 23:40:53 66° WNW 23:40:55 66° WNW 23:44:47 10° N
Cosmos 2242 Rocket 4.4 23:42:08 30° SSE 23:44:00 49° E 23:48:26 10° NNE
STARLINK-80 3.9 23:45:34 45° SE 23:45:34 45° SE 23:48:31 10° ESE
ARIANE 5 R/B 3.8 23:42:13 10° NNE 23:47:02 36° E 23:50:40 16° SSE
STARLINK-40 4.5 23:47:30 34° SE 23:47:30 34° SE 23:50:46 10° E
STARLINK-42 4.4 23:49:33 28° ESE 23:49:33 28° ESE 23:51:21 10° E
STARLINK-44 4.4 23:49:07 35° SE 23:49:07 35° SE 23:52:27 10° E
CZ-4C R/B 4.2 23:47:21 22° ESE 23:48:52 36° ENE 23:51:50 10° N
STARLINK-64 4.1 23:50:58 39° SE 23:50:58 39° SE 23:53:39 10° E
STARLINK-37 4.4 23:50:47 36° SSE 23:50:47 36° SSE 23:54:12 10° E
STARLINK-1008 4.4 23:51:47 36° SSE 23:51:47 36° SSE 23:55:28 10° E
SL-16 R/B 2.4 23:46:06 10° NNW 23:51:48 74° NE 23:57:28 10° SE
STARLINK-36 4.4 23:52:18 36° SSE 23:52:18 36° SSE 23:55:46 10° E
STARLINK-68 4.3 23:54:02 38° SSE 23:54:02 38° SSE 23:57:36 10° E
STARLINK-63 4.2 23:55:31 38° SSE 23:55:31 38° SSE 23:59:09 10° E
